Time,TemperatureF,DewpointF,PressureIn,WindDirection,WindDirectionDegrees,WindSpeedMPH,WindSpeedGustMPH,Humidity,HourlyPrecipIn,Conditions,Clouds,dailyrainin,SolarRadiationWatts/m^2,SoftwareType,DateUTC
2013-02-22 00:02:00,14.0,11.0,-100.00,North,0,8.0,15.0,87,0.00,,,0.00,0.000000,,2013-02-22 05:02:00,
2013-02-22 00:32:00,15.0,12.0,-100.00,North,0,8.0,20.0,87,0.00,,,0.00,0.000000,,2013-02-22 05:32:00,
2013-02-22 00:42:00,15.0,12.0,-100.00,North,0,8.0,20.0,87,0.00,,,0.00,0.000000,,2013-02-22 05:42:00,
2013-02-22 00:52:00,15.0,12.0,-100.00,North,0,8.0,20.0,87,0.00,,,0.00,0.000000,,2013-02-22 05:52:00,
2013-02-22 01:02:00,15.0,12.0,-100.00,North,0,8.0,20.0,87,0.00,,,0.00,0.000000,,2013-02-22 06:02:00,
2013-02-22 01:32:00,17.0,13.0,-100.00,North,0,9.0,20.0,83,0.00,,,0.00,0.000000,,2013-02-22 06:32:00,
2013-02-22 01:42:00,17.0,13.0,-100.00,North,0,9.0,20.0,83,0.00,,,0.00,0.000000,,2013-02-22 06:42:00,
2013-02-22 01:52:00,17.0,13.0,-100.00,North,0,9.0,20.0,83,0.00,,,0.00,0.000000,,2013-02-22 06:52:00,
2013-02-22 02:01:00,17.0,13.0,-100.00,North,0,9.0,20.0,83,0.00,,,0.00,0.000000,,2013-02-22 07:01:00,
2013-02-22 02:32:00,18.0,13.0,-100.00,North,0,12.0,21.0,81,0.00,,,0.00,0.000000,,2013-02-22 07:32:00,
2013-02-22 02:42:00,18.0,13.0,-100.00,North,0,12.0,21.0,81,0.00,,,0.00,0.000000,,2013-02-22 07:42:00,
2013-02-22 02:52:00,18.0,13.0,-100.00,North,0,12.0,21.0,81,0.00,,,0.00,0.000000,,2013-02-22 07:52:00,
2013-02-22 03:01:00,18.0,13.0,-100.00,North,0,12.0,21.0,81,0.00,,,0.00,0.000000,,2013-02-22 08:01:00,
2013-02-22 03:32:00,18.0,13.0,-100.00,North,0,11.0,24.0,80,0.00,,,0.00,0.000000,,2013-02-22 08:32:00,
2013-02-22 03:42:00,18.0,13.0,-100.00,North,0,11.0,24.0,80,0.00,,,0.00,0.000000,,2013-02-22 08:42:00,
2013-02-22 03:52:00,18.0,13.0,-100.00,North,0,11.0,24.0,80,0.00,,,0.00,0.000000,,2013-02-22 08:52:00,
2013-02-22 04:03:00,18.0,13.0,-100.00,North,0,11.0,24.0,80,0.00,,,0.00,0.000000,,2013-02-22 09:03:00,
2013-02-22 04:32:00,18.0,13.0,-100.00,North,0,13.0,23.0,80,0.00,,,0.00,0.000000,,2013-02-22 09:32:00,
2013-02-22 04:42:00,18.0,13.0,-100.00,North,0,13.0,23.0,80,0.00,,,0.00,0.000000,,2013-02-22 09:42:00,
2013-02-22 04:52:00,18.0,13.0,-100.00,North,0,13.0,23.0,80,0.00,,,0.00,0.000000,,2013-02-22 09:52:00,
2013-02-22 05:01:00,18.0,13.0,-100.00,North,0,13.0,23.0,80,0.00,,,0.00,0.000000,,2013-02-22 10:01:00,
2013-02-22 05:32:00,18.0,13.0,-100.00,North,0,14.0,27.0,79,0.00,,,0.00,0.000000,,2013-02-22 10:32:00,
2013-02-22 05:42:00,18.0,13.0,-100.00,North,0,14.0,27.0,79,0.00,,,0.00,0.000000,,2013-02-22 10:42:00,
2013-02-22 05:52:00,18.0,13.0,-100.00,North,0,14.0,27.0,79,0.00,,,0.00,0.000000,,2013-02-22 10:52:00,
2013-02-22 06:01:00,18.0,13.0,-100.00,North,0,14.0,27.0,79,0.00,,,0.00,0.000000,,2013-02-22 11:01:00,
2013-02-22 06:32:00,19.0,13.0,-100.00,North,0,13.0,24.0,78,0.00,,,0.00,0.000000,,2013-02-22 11:32:00,
2013-02-22 06:42:00,19.0,13.0,-100.00,North,0,13.0,24.0,78,0.00,,,0.00,0.000000,,2013-02-22 11:42:00,
2013-02-22 06:52:00,19.0,13.0,-100.00,North,0,13.0,24.0,78,0.00,,,0.00,0.000000,,2013-02-22 11:52:00,
2013-02-22 07:02:00,19.0,13.0,-100.00,North,0,13.0,24.0,78,0.00,,,0.00,0.000000,,2013-02-22 12:02:00,
2013-02-22 07:32:00,20.0,14.0,-100.00,North,0,12.0,21.0,77,0.00,,,0.00,1.000000,,2013-02-22 12:32:00,
2013-02-22 07:42:00,20.0,14.0,-100.00,North,0,12.0,21.0,77,0.00,,,0.00,1.000000,,2013-02-22 12:42:00,
2013-02-22 07:52:00,20.0,14.0,-100.00,North,0,12.0,21.0,77,0.00,,,0.00,1.000000,,2013-02-22 12:52:00,
2013-02-22 08:02:00,20.0,14.0,-100.00,North,0,12.0,21.0,77,0.00,,,0.00,1.000000,,2013-02-22 13:02:00,
2013-02-22 08:32:00,21.0,15.0,-100.00,North,0,14.0,25.0,76,0.00,,,-99.99,18.000000,,2013-02-22 13:32:00,
2013-02-22 08:42:00,21.0,15.0,-100.00,North,0,14.0,25.0,76,0.00,,,-99.99,18.000000,,2013-02-22 13:42:00,
2013-02-22 08:52:00,21.0,15.0,-100.00,North,0,14.0,25.0,76,0.00,,,-99.99,18.000000,,2013-02-22 13:52:00,
2013-02-22 09:01:00,21.0,15.0,-100.00,North,0,14.0,25.0,76,0.00,,,-99.99,18.000000,,2013-02-22 14:01:00,
2013-02-22 09:32:00,23.0,15.0,-100.00,North,0,14.0,27.0,71,0.00,,,0.00,76.000000,,2013-02-22 14:32:00,
2013-02-22 09:42:00,23.0,15.0,-100.00,North,0,14.0,27.0,71,0.00,,,0.00,76.000000,,2013-02-22 14:42:00,
2013-02-22 09:53:00,23.0,15.0,-100.00,North,0,14.0,27.0,71,0.00,,,0.00,76.000000,,2013-02-22 14:53:00,
2013-02-22 10:02:00,23.0,15.0,-100.00,North,0,14.0,27.0,71,0.00,,,0.00,76.000000,,2013-02-22 15:02:00,
2013-02-22 10:32:00,23.0,16.0,-100.00,North,0,14.0,26.0,73,0.00,,,0.00,181.000000,,2013-02-22 15:32:00,
2013-02-22 10:42:00,23.0,16.0,-100.00,North,0,14.0,26.0,73,0.00,,,0.00,181.000000,,2013-02-22 15:42:00,
2013-02-22 10:52:00,23.0,16.0,-100.00,North,0,14.0,26.0,73,0.00,,,0.00,181.000000,,2013-02-22 15:52:00,
2013-02-22 11:02:00,23.0,16.0,-100.00,North,0,14.0,26.0,73,0.00,,,0.00,181.000000,,2013-02-22 16:02:00,
2013-02-22 11:32:00,21.0,18.0,-100.00,North,0,13.0,28.0,88,0.00,,,0.00,72.000000,,2013-02-22 16:32:00,
2013-02-22 11:42:00,21.0,18.0,-100.00,North,0,13.0,28.0,88,0.00,,,0.00,72.000000,,2013-02-22 16:42:00,
2013-02-22 11:52:00,21.0,18.0,-100.00,North,0,13.0,28.0,88,0.00,,,0.00,72.000000,,2013-02-22 16:52:00,
2013-02-22 12:01:00,21.0,18.0,-100.00,North,0,13.0,28.0,88,0.00,,,0.00,72.000000,,2013-02-22 17:01:00,
2013-02-22 12:32:00,22.0,20.0,-100.00,North,0,12.0,25.0,93,0.00,,,0.00,71.000000,,2013-02-22 17:32:00,
2013-02-22 12:42:00,22.0,20.0,-100.00,North,0,12.0,25.0,93,0.00,,,0.00,71.000000,,2013-02-22 17:42:00,
2013-02-22 12:52:00,22.0,20.0,-100.00,North,0,12.0,25.0,93,0.00,,,0.00,71.000000,,2013-02-22 17:52:00,
2013-02-22 13:02:00,22.0,20.0,-100.00,North,0,12.0,25.0,93,0.00,,,0.00,71.000000,,2013-02-22 18:02:00,
2013-02-22 13:32:00,22.0,21.0,-100.00,North,0,12.0,22.0,94,0.00,,,-99.99,69.000000,,2013-02-22 18:32:00,
2013-02-22 13:42:00,22.0,21.0,-100.00,North,0,12.0,22.0,94,0.00,,,-99.99,69.000000,,2013-02-22 18:42:00,
2013-02-22 13:52:00,22.0,21.0,-100.00,North,0,12.0,22.0,94,0.00,,,-99.99,69.000000,,2013-02-22 18:52:00,
2013-02-22 14:01:00,22.0,21.0,-100.00,North,0,12.0,22.0,94,0.00,,,-99.99,69.000000,,2013-02-22 19:01:00,
2013-02-22 14:31:00,22.0,21.0,-100.00,North,0,10.0,21.0,95,0.00,,,0.00,80.000000,,2013-02-22 19:31:00,
2013-02-22 14:42:00,22.0,21.0,-100.00,North,0,10.0,21.0,95,0.00,,,0.00,80.000000,,2013-02-22 19:42:00,
2013-02-22 14:52:00,22.0,21.0,-100.00,North,0,10.0,21.0,95,0.00,,,0.00,80.000000,,2013-02-22 19:52:00,
2013-02-22 15:01:00,22.0,21.0,-100.00,North,0,10.0,21.0,95,0.00,,,0.00,80.000000,,2013-02-22 20:01:00,
2013-02-22 15:32:00,23.0,22.0,-100.00,North,0,10.0,19.0,97,0.00,,,0.00,85.000000,,2013-02-22 20:32:00,
2013-02-22 15:42:00,23.0,22.0,-100.00,North,0,10.0,19.0,97,0.00,,,0.00,85.000000,,2013-02-22 20:42:00,
2013-02-22 15:52:00,23.0,22.0,-100.00,North,0,10.0,19.0,97,0.00,,,0.00,85.000000,,2013-02-22 20:52:00,
2013-02-22 16:02:00,23.0,22.0,-100.00,North,0,10.0,19.0,97,0.00,,,0.00,85.000000,,2013-02-22 21:02:00,
2013-02-22 16:32:00,23.0,23.0,-100.00,North,0,9.0,19.0,98,0.00,,,0.00,77.000000,,2013-02-22 21:32:00,
2013-02-22 16:42:00,23.0,23.0,-100.00,North,0,9.0,19.0,98,0.00,,,0.00,77.000000,,2013-02-22 21:42:00,
2013-02-22 16:52:00,23.0,23.0,-100.00,North,0,9.0,19.0,98,0.00,,,0.00,77.000000,,2013-02-22 21:52:00,
2013-02-22 17:01:00,23.0,23.0,-100.00,North,0,9.0,19.0,98,0.00,,,0.00,77.000000,,2013-02-22 22:01:00,
2013-02-22 17:32:00,23.0,23.0,-100.00,North,0,10.0,18.0,98,0.00,,,0.00,49.000000,,2013-02-22 22:32:00,
2013-02-22 17:42:00,23.0,23.0,-100.00,North,0,10.0,18.0,98,0.00,,,0.00,49.000000,,2013-02-22 22:42:00,
2013-02-22 17:52:00,23.0,23.0,-100.00,North,0,10.0,18.0,98,0.00,,,0.00,49.000000,,2013-02-22 22:52:00,
2013-02-22 18:01:00,23.0,23.0,-100.00,North,0,10.0,18.0,98,0.00,,,0.00,49.000000,,2013-02-22 23:01:00,
2013-02-22 18:32:00,23.0,23.0,-100.00,North,0,10.0,19.0,99,0.00,,,0.00,12.000000,,2013-02-22 23:32:00,
2013-02-22 18:42:00,23.0,23.0,-100.00,North,0,10.0,19.0,99,0.00,,,0.00,12.000000,,2013-02-22 23:42:00,
2013-02-22 18:52:00,23.0,23.0,-100.00,North,0,10.0,19.0,99,0.00,,,0.00,12.000000,,2013-02-22 23:52:00,
2013-02-22 19:02:00,23.0,23.0,-100.00,North,0,10.0,19.0,99,0.00,,,0.00,12.000000,,2013-02-23 00:02:00,
2013-02-22 19:32:00,24.0,24.0,-100.00,North,0,9.0,17.0,99,0.00,,,0.00,0.000000,,2013-02-23 00:32:00,
2013-02-22 19:42:00,24.0,24.0,-100.00,North,0,9.0,17.0,99,0.00,,,0.00,0.000000,,2013-02-23 00:42:00,
2013-02-22 19:52:00,24.0,24.0,-100.00,North,0,9.0,17.0,99,0.00,,,0.00,0.000000,,2013-02-23 00:52:00,
2013-02-22 20:01:00,24.0,24.0,-100.00,North,0,9.0,17.0,99,0.00,,,0.00,0.000000,,2013-02-23 01:01:00,
2013-02-22 20:32:00,24.0,24.0,-100.00,North,0,10.0,19.0,99,0.00,,,-99.99,0.000000,,2013-02-23 01:32:00,
2013-02-22 20:42:00,24.0,24.0,-100.00,North,0,10.0,19.0,99,0.00,,,-99.99,0.000000,,2013-02-23 01:42:00,
2013-02-22 20:52:00,24.0,24.0,-100.00,North,0,10.0,19.0,99,0.00,,,-99.99,0.000000,,2013-02-23 01:52:00,
2013-02-22 21:01:00,24.0,24.0,-100.00,North,0,10.0,19.0,99,0.00,,,-99.99,0.000000,,2013-02-23 02:01:00,
2013-02-22 21:32:00,24.0,24.0,-100.00,North,0,11.0,22.0,99,0.00,,,0.00,0.000000,,2013-02-23 02:32:00,
2013-02-22 21:42:00,24.0,24.0,-100.00,North,0,11.0,22.0,99,0.00,,,0.00,0.000000,,2013-02-23 02:42:00,
2013-02-22 21:52:00,24.0,24.0,-100.00,North,0,11.0,22.0,99,0.00,,,0.00,0.000000,,2013-02-23 02:52:00,
2013-02-22 22:02:00,24.0,24.0,-100.00,North,0,11.0,22.0,99,0.00,,,0.00,0.000000,,2013-02-23 03:02:00,
2013-02-22 22:32:00,24.0,24.0,-100.00,North,0,9.0,18.0,99,0.00,,,0.00,0.000000,,2013-02-23 03:32:00,
2013-02-22 22:42:00,24.0,24.0,-100.00,North,0,9.0,18.0,99,0.00,,,0.00,0.000000,,2013-02-23 03:42:00,
2013-02-22 22:52:00,24.0,24.0,-100.00,North,0,9.0,18.0,99,0.00,,,0.00,0.000000,,2013-02-23 03:52:00,
2013-02-22 23:01:00,24.0,24.0,-100.00,North,0,9.0,18.0,99,0.00,,,0.00,0.000000,,2013-02-23 04:01:00,
2013-02-22 23:32:00,24.0,24.0,-100.00,North,0,11.0,19.0,99,0.00,,,0.00,0.000000,,2013-02-23 04:32:00,
2013-02-22 23:42:00,24.0,24.0,-100.00,North,0,11.0,19.0,99,0.00,,,0.00,0.000000,,2013-02-23 04:42:00,
2013-02-22 23:52:00,24.0,24.0,-100.00,North,0,11.0,19.0,99,0.00,,,0.00,0.000000,,2013-02-23 04:52:00,